Location: Marstown
(39.5056°N, 77.0820°W)
Time: 07:48:27
(UTC-04:00)

Envisat - Visible Passes

Search period start: 20 May 2018 00:00
Search period end: 30 May 2018 00:00
Orbit: 764 x 766 km, 98.2° (Epoch: 20 May)

Date Brightness Start Highest point End Pass type
(mag) Time Alt. Az. Time Alt. Az. Time Alt. Az.
21 May 5.4 21:33:59 10° SW 21:37:46 21° W 21:41:34 10° NW visible
22 May 4.0 20:55:57 10° S 21:00:49 47° W 21:05:44 10° NNW visible
23 May 5.8 22:02:04 10° WSW 22:03:37 11° W 22:05:11 10° WNW visible
24 May 5.0 21:22:18 10° SSW 21:26:31 26° W 21:30:47 10° NW visible
26 May 5.6 21:49:31 10° SW 21:52:20 15° W 21:55:10 10° WNW visible
27 May 4.6 21:10:45 10° SSW 21:15:18 33° W 21:19:54 10° NNW visible
29 May 5.5 21:37:31 10° SW 21:41:04 19° W 21:44:38 10° NW visible
